Home   Weather   San Diego   Past weeks

Flag for USA Past Weather in San Diego, California, USA — Yesterday and Last 2 Weeks

Now
68 °F

Passing clouds.


Feels Like: 68 °F
Forecast: 65 / 75 °F
Wind: 7 mph from Northwest

Location: San Diego - North Island

Current Time: Aug 18, 2017 at 12:16:42 am

Latest Report: Aug 17, 2017 at 11:52 pm


Visibility: 10 mi

Pressure: 29.99 "Hg

Humidity: 78%

Dew Point: 61 °F

Location of San DiegoLocation

Past Weather in San Diego — Graph

°F

San Diego Temperature Yesterday

Maximum temperature yesterday: 75 °F (at 12:52 pm)
Minimum temperature yesterday: 65 °F (at 1:52 am)
Average temperature yesterday: 70 °F

High & Low Weather Summary for the Past Weeks

 TemperatureHumidityPressure
High79 °F (Aug 4, 12:52 pm)93% (Aug 3, 6:52 am)30.03 "Hg (Aug 3, 6:52 am)
Low64 °F (Aug 15, 11:52 pm)52% (Aug 16, 1:52 pm)29.81 "Hg (Aug 11, 6:52 pm)
Average71 °F75%29.91 "Hg
* Reported Aug 2 10:52 pm — Aug 17 10:52 pm, San Diego. Weather by CustomWeather, © 2017

Note: Actual official high and low records may vary slightly from our data, if they occured in-between our weather recording intervals... More about our weather records

Advertising

San Diego Weather History for the Previous 24 Hours

Scroll right to see more
 ConditionsComfort  
Time TempWeatherWind HumidityBarometerVisibility
10:52 pm
Thu, Aug 17
68 °FPassing clouds.8 mph78%29.99 "Hg10 mi
9:52 pm69 °FPassing clouds.9 mph76%29.99 "Hg10 mi
8:52 pm69 °FPassing clouds.9 mph76%29.98 "Hg10 mi
7:52 pm69 °FPassing clouds.9 mph73%29.98 "Hg10 mi
6:52 pm71 °FPassing clouds.10 mph71%29.96 "Hg10 mi
5:52 pm72 °FPassing clouds.12 mph68%29.96 "Hg10 mi
4:52 pm73 °FPassing clouds.10 mph64%29.96 "Hg10 mi
3:52 pm74 °FPassing clouds.12 mph62%29.97 "Hg10 mi
2:52 pm75 °FPassing clouds.13 mph60%29.98 "Hg10 mi
1:52 pm75 °FSunny.10 mph58%29.99 "Hg10 mi
12:52 pm75 °FPassing clouds.12 mph58%30.00 "Hg10 mi
11:52 am73 °FPassing clouds.10 mph62%30.01 "Hg10 mi
10:52 am72 °FPassing clouds.7 mph64%30.02 "Hg10 mi
10:16 am72 °FScattered clouds.8 mph64%30.02 "Hg10 mi
9:52 am71 °FPartly sunny.7 mph68%30.03 "Hg10 mi
8:52 am71 °FOvercast.3 mph66%30.02 "Hg10 mi
7:52 am68 °FPartly sunny.3 mph73%30.01 "Hg10 mi
5:52 am66 °FPassing clouds.No wind78%29.98 "Hg10 mi
4:52 am66 °FPassing clouds.No wind78%29.96 "Hg10 mi
3:52 am66 °FPassing clouds.No wind81%29.96 "Hg8 mi
2:52 am66 °FPassing clouds.No wind78%29.97 "Hg10 mi
1:52 am65 °FPassing clouds.No wind78%29.97 "Hg10 mi
12:52 am66 °FPassing clouds.No wind78%29.97 "Hg10 mi
Weather by CustomWeather, © 2017

See weather overviewHow to use our weather pages